Time,TemperatureF,DewpointF,PressureIn,WindDirection,WindDirectionDegrees,WindSpeedMPH,WindSpeedGustMPH,Humidity,HourlyPrecipIn,Conditions,Clouds,dailyrainin,SoftwareType,DateUTC
2013-02-07 00:21:00,31.0,-6.0,30.10,WSW,240,1.0,2.0,19,0.00,,,-99.99,,2013-02-07 08:21:00,
2013-02-07 00:32:00,31.0,-6.0,30.10,WSW,240,1.0,2.0,19,0.00,,,-99.99,,2013-02-07 08:32:00,
2013-02-07 01:21:00,31.0,-13.0,30.11,North,0,0.0,2.0,14,0.00,,,-99.99,,2013-02-07 09:21:00,
2013-02-07 01:31:00,31.0,-13.0,30.11,North,0,0.0,2.0,14,0.00,,,-99.99,,2013-02-07 09:31:00,
2013-02-07 02:22:00,31.0,-11.0,30.11,WSW,240,1.0,1.0,15,0.00,,,-99.99,,2013-02-07 10:22:00,
2013-02-07 02:32:00,31.0,-11.0,30.11,WSW,240,1.0,1.0,15,0.00,,,-99.99,,2013-02-07 10:32:00,
2013-02-07 03:22:00,31.0,-14.0,30.10,North,-999,0.0,0.0,13,0.00,,,-99.99,,2013-02-07 11:22:00,
2013-02-07 03:32:00,31.0,-14.0,30.10,North,-999,0.0,0.0,13,0.00,,,-99.99,,2013-02-07 11:32:00,
2013-02-07 04:22:00,30.0,-12.0,30.10,North,0,0.0,2.0,15,0.00,,,-99.99,,2013-02-07 12:22:00,
2013-02-07 04:32:00,30.0,-12.0,30.10,North,0,0.0,2.0,15,0.00,,,-99.99,,2013-02-07 12:32:00,
2013-02-07 05:22:00,31.0,-13.0,30.09,WSW,240,1.0,2.0,14,0.00,,,-99.99,,2013-02-07 13:22:00,
2013-02-07 05:32:00,31.0,-13.0,30.09,WSW,240,1.0,2.0,14,0.00,,,-99.99,,2013-02-07 13:32:00,
2013-02-07 06:21:00,32.0,-12.0,30.10,SW,230,1.0,2.0,14,0.00,,,-99.99,,2013-02-07 14:21:00,
2013-02-07 06:32:00,32.0,-12.0,30.10,SW,230,1.0,2.0,14,0.00,,,-99.99,,2013-02-07 14:32:00,
2013-02-07 07:22:00,31.0,-9.0,30.11,North,-999,0.0,0.0,17,0.00,,,-99.99,,2013-02-07 15:22:00,
2013-02-07 07:32:00,31.0,-9.0,30.11,North,-999,0.0,0.0,17,0.00,,,-99.99,,2013-02-07 15:32:00,
2013-02-07 08:21:00,36.0,-5.0,30.12,North,-999,0.0,0.0,17,0.00,,,-99.99,,2013-02-07 16:21:00,
2013-02-07 08:31:00,36.0,-5.0,30.12,North,-999,0.0,0.0,17,0.00,,,-99.99,,2013-02-07 16:31:00,
2013-02-07 09:21:00,43.0,-4.0,30.11,West,270,1.0,2.0,13,0.00,,,-99.99,,2013-02-07 17:21:00,
2013-02-07 09:31:00,43.0,-4.0,30.11,West,270,1.0,2.0,13,0.00,,,-99.99,,2013-02-07 17:31:00,
2013-02-07 10:23:00,47.0,-3.0,30.11,North,0,0.0,4.0,12,0.00,,,-99.99,,2013-02-07 18:23:00,
2013-02-07 10:31:00,47.0,-3.0,30.11,North,0,0.0,4.0,12,0.00,,,-99.99,,2013-02-07 18:31:00,
2013-02-07 10:41:00,47.0,-3.0,30.11,North,0,0.0,4.0,12,0.00,,,-99.99,,2013-02-07 18:41:00,
2013-02-07 11:22:00,48.0,-2.0,30.10,SW,220,1.0,8.0,12,0.00,,,-99.99,,2013-02-07 19:22:00,
2013-02-07 11:31:00,48.0,-2.0,30.10,SW,220,1.0,8.0,12,0.00,,,-99.99,,2013-02-07 19:31:00,
2013-02-07 11:41:00,48.0,-2.0,30.10,SW,220,1.0,8.0,12,0.00,,,-99.99,,2013-02-07 19:41:00,
2013-02-07 12:21:00,49.0,6.0,30.07,WSW,240,3.0,6.0,17,0.00,,,-99.99,,2013-02-07 20:21:00,
2013-02-07 12:31:00,49.0,6.0,30.07,WSW,240,3.0,6.0,17,0.00,,,-99.99,,2013-02-07 20:31:00,
2013-02-07 12:41:00,49.0,6.0,30.07,WSW,240,3.0,6.0,17,0.00,,,-99.99,,2013-02-07 20:41:00,
2013-02-07 13:21:00,48.0,11.0,30.02,NW,320,3.0,9.0,22,0.00,,,-99.99,,2013-02-07 21:21:00,
2013-02-07 13:31:00,48.0,11.0,30.02,NW,320,3.0,9.0,22,0.00,,,-99.99,,2013-02-07 21:31:00,
2013-02-07 13:42:00,48.0,11.0,30.02,NW,320,3.0,9.0,22,0.00,,,-99.99,,2013-02-07 21:42:00,
2013-02-07 14:21:00,47.0,13.0,29.99,West,260,6.0,8.0,25,0.00,,,-99.99,,2013-02-07 22:21:00,
2013-02-07 14:31:00,47.0,13.0,29.99,West,260,6.0,8.0,25,0.00,,,-99.99,,2013-02-07 22:31:00,
2013-02-07 14:42:00,47.0,13.0,29.99,West,260,6.0,8.0,25,0.00,,,-99.99,,2013-02-07 22:42:00,
2013-02-07 15:21:00,44.0,19.0,29.96,SSW,210,3.0,9.0,36,0.00,,,-99.99,,2013-02-07 23:21:00,
2013-02-07 15:32:00,44.0,19.0,29.96,SSW,210,3.0,9.0,36,0.00,,,-99.99,,2013-02-07 23:32:00,
2013-02-07 15:41:00,44.0,19.0,29.96,SSW,210,3.0,9.0,36,0.00,,,-99.99,,2013-02-07 23:41:00,
2013-02-07 16:21:00,43.0,25.0,29.94,WSW,250,5.0,5.0,49,0.00,,,-99.99,,2013-02-08 00:21:00,
2013-02-07 16:31:00,43.0,25.0,29.94,WSW,250,5.0,5.0,49,0.00,,,-99.99,,2013-02-08 00:31:00,
2013-02-07 16:41:00,43.0,25.0,29.94,WSW,250,5.0,5.0,49,0.00,,,-99.99,,2013-02-08 00:41:00,
2013-02-07 17:21:00,40.0,20.0,29.90,WSW,240,5.0,9.0,44,0.00,,,-99.99,,2013-02-08 01:21:00,
2013-02-07 17:31:00,40.0,20.0,29.90,WSW,240,5.0,9.0,44,0.00,,,-99.99,,2013-02-08 01:31:00,
2013-02-07 17:41:00,40.0,20.0,29.90,WSW,240,5.0,9.0,44,0.00,,,-99.99,,2013-02-08 01:41:00,
2013-02-07 18:21:00,35.0,22.0,29.89,SW,220,2.0,9.0,59,0.00,,,-99.99,,2013-02-08 02:21:00,
2013-02-07 18:32:00,35.0,22.0,29.89,SW,220,2.0,9.0,59,0.00,,,-99.99,,2013-02-08 02:32:00,
2013-02-07 18:42:00,35.0,22.0,29.89,SW,220,2.0,9.0,59,0.00,,,-99.99,,2013-02-08 02:42:00,
2013-02-07 19:22:00,34.0,22.0,29.88,WSW,240,6.0,11.0,61,0.00,,,-99.99,,2013-02-08 03:22:00,
2013-02-07 19:32:00,34.0,22.0,29.88,WSW,240,6.0,11.0,61,0.00,,,-99.99,,2013-02-08 03:32:00,
2013-02-07 19:41:00,34.0,22.0,29.88,WSW,240,6.0,11.0,61,0.00,,,-99.99,,2013-02-08 03:41:00,
2013-02-07 20:21:00,33.0,19.0,29.86,SSW,210,2.0,7.0,57,0.00,,,-99.99,,2013-02-08 04:21:00,
2013-02-07 20:32:00,33.0,19.0,29.86,SSW,210,2.0,7.0,57,0.00,,,-99.99,,2013-02-08 04:32:00,
2013-02-07 20:41:00,33.0,19.0,29.86,SSW,210,2.0,7.0,57,0.00,,,-99.99,,2013-02-08 04:41:00,
2013-02-07 21:22:00,31.0,19.0,29.84,SW,230,8.0,13.0,61,0.00,,,-99.99,,2013-02-08 05:22:00,
2013-02-07 21:31:00,31.0,19.0,29.84,SW,230,8.0,13.0,61,0.00,,,-99.99,,2013-02-08 05:31:00,
2013-02-07 21:41:00,31.0,19.0,29.84,SW,230,8.0,13.0,61,0.00,,,-99.99,,2013-02-08 05:41:00,
2013-02-07 22:21:00,32.0,5.0,29.80,WSW,250,7.0,15.0,31,0.00,,,-99.99,,2013-02-08 06:21:00,
2013-02-07 22:31:00,32.0,5.0,29.80,WSW,250,7.0,15.0,31,0.00,,,-99.99,,2013-02-08 06:31:00,
2013-02-07 22:41:00,32.0,5.0,29.80,WSW,250,7.0,15.0,31,0.00,,,-99.99,,2013-02-08 06:41:00,
2013-02-07 23:21:00,27.0,21.0,29.81,SE,130,3.0,9.0,78,0.00,,,-99.99,,2013-02-08 07:21:00,
2013-02-07 23:31:00,27.0,21.0,29.81,SE,130,3.0,9.0,78,0.00,,,-99.99,,2013-02-08 07:31:00,
2013-02-07 23:42:00,27.0,21.0,29.81,SE,130,3.0,9.0,78,0.00,,,-99.99,,2013-02-08 07:42:00,